Weather reports worldwide

Advertisment
Lecce, Italy (16332): temperature & dewpoint: 09.12.2018 07:00:00 - 15.12.2018 07:00:00 (CET)Lecce, Italy (16332): wind speed: 09.12.2018 07:00:00 - 15.12.2018 07:00:00 (CET)Lecce, Italy (16332): wind direction: 09.12.2018 07:00:00 - 15.12.2018 07:00:00 (CET)Lecce, Italy (16332): reduced air pressure: 09.12.2018 07:00:00 - 15.12.2018 07:00:00 (CET)Lecce, Italy (16332): visibility: 09.12.2018 07:00:00 - 15.12.2018 07:00:00 (CET)
Date & Time tt [°C] td [°C] ff [km/h] ff [kn] dd ppp [hPa] vv [km]
15.12.2018 07:00:00 - - - - - - -
15.12.2018 06:00:00 11,0 10,0 11 6 N - 10
15.12.2018 05:00:00 12,0 11,0 18 10 WNW - 8
15.12.2018 04:00:00 12,6 11,3 37 20 WSW 1008,9 7
15.12.2018 03:00:00 9,0 8,0 26 14 SE - 5
15.12.2018 02:00:00 12,0 11,0 8 4 E - 10
15.12.2018 01:00:00 10,0 8,9 4 2 NE 1010,3 10
15.12.2018 00:00:00 12,0 11,0 8 4 E - 10
14.12.2018 23:00:00 13,0 11,0 9 5 SE - 10
14.12.2018 22:00:00 13,2 11,6 13 7 SSE 1011,2 10
14.12.2018 21:00:00 13,0 12,0 11 6 S - 10
14.12.2018 20:00:00 14,0 12,0 16 9 S - 10
14.12.2018 19:00:00 13,2 11,8 18 10 S 1011,0 10
14.12.2018 18:00:00 14,0 12,0 21 11 S - 10
14.12.2018 17:00:00 14,0 12,0 16 9 S - 10
14.12.2018 16:00:00 14,8 12,5 24 13 S 1010,6 10
14.12.2018 15:00:00 15,0 13,0 24 13 S - 10
14.12.2018 14:00:00 16,0 13,0 29 16 S - 10
14.12.2018 13:00:00 16,2 12,6 29 16 S 1011,0 10
14.12.2018 12:00:00 16,0 13,0 29 16 S - 10
14.12.2018 11:00:00 16,0 13,0 21 11 S - 10
14.12.2018 10:00:00 15,4 13,8 18 10 S 1011,6 10
14.12.2018 09:00:00 13,0 12,0 13 7 SE - 8
14.12.2018 08:00:00 11,0 10,0 11 6 SE - 8
14.12.2018 07:00:00 10,6 9,7 9 5 SE 1011,1 8
14.12.2018 06:00:00 10,0 9,0 11 6 ESE - 10
14.12.2018 05:00:00 10,0 9,0 9 5 ESE - 10
14.12.2018 04:00:00 10,4 9,3 9 5 ESE 1011,7 10
14.12.2018 03:00:00 10,0 9,0 8 4 SE - 10
14.12.2018 02:00:00 10,0 9,0 9 5 SSE - 10
14.12.2018 01:00:00 10,0 8,9 5 3 SE 1012,3 10
14.12.2018 00:00:00 9,0 9,0 9 5 SE - 10
13.12.2018 23:00:00 9,0 8,0 9 5 S - 10
13.12.2018 22:00:00 8,6 8,0 5 3 S 1011,8 10
13.12.2018 21:00:00 8,0 8,0 5 3 SSE - 10
13.12.2018 20:00:00 8,0 8,0 5 3 SE - 10
13.12.2018 19:00:00 9,8 9,0 9 5 E 1012,2 10
13.12.2018 18:00:00 9,0 9,0 5 3 - - 10
13.12.2018 17:00:00 10,0 9,0 8 4 E - 10
13.12.2018 16:00:00 11,0 9,6 15 8 ESE 1012,4 10
13.12.2018 15:00:00 11,0 10,0 18 10 SE - 10
13.12.2018 14:00:00 12,0 10,0 18 10 SE - 10
13.12.2018 13:00:00 10,2 7,8 15 8 SE 1013,8 8
13.12.2018 12:00:00 11,0 8,0 16 9 SE - 10
13.12.2018 11:00:00 10,0 8,0 15 8 SE - 10
13.12.2018 10:00:00 8,2 7,6 4 2 SE 1015,6 10
13.12.2018 09:00:00 9,0 8,0 5 3 ESE - 10
13.12.2018 08:00:00 8,0 8,0 2 1 - - 10
13.12.2018 07:00:00 7,8 7,8 8 4 S 1016,6 10
13.12.2018 06:00:00 8,0 8,0 2 1 - - 10
13.12.2018 05:00:00 7,0 7,0 4 2 SE - 10
13.12.2018 04:00:00 8,0 7,3 2 1 - 1017,8 10
13.12.2018 03:00:00 9,0 5,0 8 4 NE - 10
13.12.2018 02:00:00 7,0 3,0 9 5 ENE - 10
13.12.2018 01:00:00 7,0 5,2 5 3 ENE 1018,7 10
13.12.2018 00:00:00 6,0 4,0 8 4 E - 10
12.12.2018 23:00:00 6,0 5,0 8 4 E - 10
12.12.2018 22:00:00 5,4 4,7 5 3 ESE 1019,7 10
12.12.2018 21:00:00 5,0 5,0 2 1 - - 10
12.12.2018 20:00:00 5,0 5,0 4 2 SSE - 10
12.12.2018 19:00:00 5,4 4,5 4 2 S 1019,9 10
12.12.2018 18:00:00 6,0 4,0 5 3 ESE - 10
12.12.2018 17:00:00 8,0 4,0 4 2 ESE - 10
12.12.2018 16:00:00 11,2 4,2 4 2 N 1019,6 10
12.12.2018 15:00:00 12,0 4,0 5 3 WSW - 10
12.12.2018 14:00:00 12,0 3,0 5 3 WSW - 10
12.12.2018 13:00:00 12,6 4,8 4 2 S 1019,7 10
12.12.2018 12:00:00 12,0 6,0 5 3 S - 10
12.12.2018 11:00:00 11,0 6,0 4 2 NE - 10
12.12.2018 10:00:00 9,0 5,7 4 2 WSW 1020,4 10
12.12.2018 09:00:00 7,0 6,0 4 2 SE - 10
12.12.2018 08:00:00 3,0 3,0 5 3 - - 10
12.12.2018 07:00:00 1,8 1,8 5 3 N 1019,5 10
12.12.2018 06:00:00 2,0 2,0 4 2 - - 10
12.12.2018 05:00:00 2,0 2,0 5 3 - - 10
12.12.2018 04:00:00 2,6 2,6 8 4 NNW 1019,1 10
12.12.2018 03:00:00 4,0 4,0 4 2 - - 10
12.12.2018 02:00:00 4,0 4,0 5 3 WSW - 10
12.12.2018 01:00:00 6,0 5,3 2 1 N 1019,1 10
12.12.2018 00:00:00 4,0 4,0 9 5 N - 10
11.12.2018 23:00:00 5,0 4,0 8 4 WNW - 10
11.12.2018 22:00:00 4,8 3,3 9 5 NNW 1018,7 10
11.12.2018 21:00:00 6,0 3,0 5 3 NW - 10
11.12.2018 20:00:00 7,0 3,0 9 5 WNW - 10
11.12.2018 19:00:00 9,0 2,6 13 7 NNW 1017,6 10
11.12.2018 18:00:00 7,0 4,0 8 4 WNW - 10
11.12.2018 17:00:00 9,0 5,0 9 5 NNW - 10
11.12.2018 16:00:00 11,0 5,1 16 9 N 1016,3 10
11.12.2018 15:00:00 11,0 4,0 22 12 N - 10
11.12.2018 14:00:00 13,0 5,0 22 12 N - 10
11.12.2018 13:00:00 11,0 6,2 8 4 NE 1015,3 10
11.12.2018 12:00:00 12,0 7,0 11 6 NNW - 10
11.12.2018 11:00:00 10,0 6,0 5 3 W - 10
11.12.2018 10:00:00 8,0 6,5 5 3 E 1015,7 10
11.12.2018 09:00:00 9,0 6,0 13 7 NW - 10
11.12.2018 08:00:00 9,0 6,0 13 7 NW - 10
11.12.2018 07:00:00 8,0 6,8 9 5 NW 1013,3 10
11.12.2018 06:00:00 8,0 8,0 11 6 NW - 10
11.12.2018 05:00:00 8,0 7,0 11 6 WNW - 10
11.12.2018 04:00:00 7,8 7,8 5 3 W 1012,5 10
11.12.2018 03:00:00 9,0 7,0 13 7 NNE - 10
11.12.2018 02:00:00 9,0 7,0 16 9 N - 10
11.12.2018 01:00:00 10,0 7,8 16 9 N 1012,2 10
11.12.2018 00:00:00 8,0 8,0 11 6 NW - 10
10.12.2018 23:00:00 8,0 7,0 9 5 NW - 10
10.12.2018 22:00:00 8,4 7,7 9 5 WNW 1011,5 10
10.12.2018 21:00:00 9,0 7,0 9 5 WNW - 10
10.12.2018 20:00:00 11,0 7,0 9 5 N - 10
10.12.2018 19:00:00 11,4 6,1 9 5 N 1011,1 10
10.12.2018 18:00:00 13,0 6,0 16 9 NNW - 10
10.12.2018 17:00:00 14,0 5,0 22 12 NNW - 10
10.12.2018 16:00:00 16,0 5,6 15 8 N 1010,4 10
10.12.2018 15:00:00 16,0 5,0 28 15 NNW - 10
10.12.2018 14:00:00 14,0 6,0 16 9 NNW - 10
10.12.2018 13:00:00 14,0 6,8 26 14 W 1010,5 10
10.12.2018 12:00:00 14,0 7,0 29 16 NW - 10
10.12.2018 11:00:00 14,0 9,0 28 15 NW - 10
10.12.2018 10:00:00 13,0 11,1 16 9 NW 1010,5 10
10.12.2018 09:00:00 12,0 10,0 21 11 WNW - 10
10.12.2018 08:00:00 10,0 8,0 13 7 NNW - 10
10.12.2018 07:00:00 8,2 7,6 8 4 WNW 1008,1 10
10.12.2018 06:00:00 9,0 9,0 13 7 WNW - 10
10.12.2018 05:00:00 10,0 8,0 13 7 W - 10
10.12.2018 04:00:00 10,0 7,8 13 7 W 1007,1 10
10.12.2018 03:00:00 10,0 8,0 13 7 WNW - 10
10.12.2018 02:00:00 10,0 9,0 11 6 WNW - 10
10.12.2018 01:00:00 10,2 9,1 11 6 W 1006,7 10
10.12.2018 00:00:00 13,0 12,0 9 5 W - 10
09.12.2018 23:00:00 13,0 12,0 9 5 W - 10
09.12.2018 22:00:00 14,0 11,9 11 6 WSW 1008,2 10
09.12.2018 21:00:00 14,0 12,0 16 9 WSW - 10
09.12.2018 20:00:00 12,0 9,0 13 7 S - 10
09.12.2018 19:00:00 11,8 8,5 13 7 S 1009,5 10
09.12.2018 18:00:00 12,0 10,0 11 6 S - 10
09.12.2018 17:00:00 12,0 9,0 15 8 S - 10
09.12.2018 16:00:00 14,8 9,6 15 8 WSW 1010,7 10
09.12.2018 15:00:00 15,0 6,0 9 5 SW - 10
09.12.2018 14:00:00 15,0 6,0 13 7 WSW - 10
09.12.2018 13:00:00 14,6 3,1 21 11 W 1012,7 10
09.12.2018 12:00:00 14,0 7,0 15 8 WNW - 10
09.12.2018 11:00:00 13,0 7,0 18 10 WNW - 10
09.12.2018 10:00:00 11,8 6,5 18 10 WNW 1014,8 10
09.12.2018 09:00:00 10,0 6,0 16 9 W - 10
09.12.2018 08:00:00 9,0 5,0 18 10 W - 10
09.12.2018 07:00:00 9,4 5,6 22 12 WNW 1013,8 10

tt = temperature
td = dewpoint
ff = wind speed
dd = wind direction
ppp = reduced air pressure
vv = visibility

Next stations